CFVKO CZBA-CZBA

Flight info

Callsign CFVKO
Flight time N/A
Altitude 4500
Route CYXU 0030
Aircraft C172/L-V/N

Departure

Time 2026-04-22 00:19
Airport Burlington Executive Airpark (CZBA)

Arrival

Time N/A
Airport Burlington Executive Airpark (CZBA)
Time Latitude Longitude Altitude Speed Heading
2026-04-22 00:05 43.44256 -79.85038 602 ft 0 kts 40°
2026-04-22 00:13 43.44257 -79.85037 604 ft 2 kts 39°
2026-04-22 00:13 43.44257 -79.85044 612 ft 4 kts 204°
2026-04-22 00:14 43.44253 -79.85046 608 ft 4 kts 194°
2026-04-22 00:14 43.44243 -79.85043 614 ft 0 kts 143°
2026-04-22 00:15 43.44220 -79.85050 607 ft 6 kts 273°
2026-04-22 00:15 43.44271 -79.85137 607 ft 20 kts 309°
2026-04-22 00:16 43.44386 -79.85321 606 ft 30 kts 310°
2026-04-22 00:16 43.44496 -79.85492 604 ft 7 kts 315°
2026-04-22 00:16 43.44506 -79.85504 604 ft 1 kts 308°
2026-04-22 00:16 43.44508 -79.85510 612 ft 0 kts 261°
2026-04-22 00:18 43.44490 -79.85539 612 ft 12 kts 206°
2026-04-22 00:18 43.44416 -79.85449 604 ft 33 kts 131°
2026-04-22 00:18 43.44159 -79.85050 646 ft 73 kts 126°
2026-04-22 00:18 43.43799 -79.84460 863 ft 87 kts 128°
2026-04-22 00:19 43.43386 -79.83812 1092 ft 92 kts 131°
2026-04-22 00:19 43.42945 -79.83171 1468 ft 91 kts 139°
2026-04-22 00:19 43.42462 -79.82618 1810 ft 89 kts 169°
2026-04-22 00:19 43.41928 -79.82845 2092 ft 84 kts 229°
2026-04-22 00:20 43.41731 -79.83633 2340 ft 89 kts 254°
2026-04-22 00:20 43.41713 -79.84554 2351 ft 95 kts 263°
2026-04-22 00:20 43.41780 -79.85517 2171 ft 110 kts 270°
2026-04-22 00:20 43.41976 -79.86540 2216 ft 102 kts 278°
2026-04-22 00:21 43.42251 -79.87399 2268 ft 97 kts 285°
2026-04-22 00:21 43.42581 -79.88216 2259 ft 98 kts 288°
2026-04-22 00:21 43.42938 -79.89029 2285 ft 101 kts 288°
2026-04-22 00:21 43.43276 -79.89870 2315 ft 101 kts 284°
2026-04-22 00:22 43.43403 -79.90783 2331 ft 95 kts 262°
2026-04-22 00:22 43.43364 -79.91727 2254 ft 106 kts 259°
2026-04-22 00:22 43.43319 -79.92731 2332 ft 103 kts 259°
2026-04-22 00:22 43.43199 -79.93708 2234 ft 103 kts 249°
2026-04-22 00:23 43.42981 -79.94625 2315 ft 97 kts 245°
2026-04-22 00:23 43.42767 -79.95500 2357 ft 99 kts 248°
2026-04-22 00:23 43.42568 -79.96417 2275 ft 101 kts 246°
2026-04-22 00:23 43.42378 -79.97233 2735 ft 76 kts 248°
2026-04-22 00:24 43.42257 -79.97899 3090 ft 71 kts 248°
2026-04-22 00:24 43.42125 -79.98557 3315 ft 73 kts 249°
2026-04-22 00:24 43.42011 -79.99263 3304 ft 74 kts 250°
2026-04-22 00:24 43.41906 -79.99932 3276 ft 73 kts 246°
2026-04-22 00:25 43.41768 -80.00618 3219 ft 74 kts 250°
2026-04-22 00:25 43.41676 -80.01311 3195 ft 75 kts 249°
2026-04-22 00:25 43.41544 -80.01959 3270 ft 66 kts 242°
2026-04-22 00:25 43.41320 -80.02519 3223 ft 70 kts 235°
2026-04-22 00:26 43.41055 -80.03073 3187 ft 72 kts 237°
2026-04-22 00:26 43.40805 -80.03661 3163 ft 69 kts 237°
2026-04-22 00:26 43.40561 -80.04220 3193 ft 67 kts 236°
2026-04-22 00:26 43.40317 -80.04752 3229 ft 65 kts 235°
2026-04-22 00:27 43.40078 -80.05263 3257 ft 63 kts 234°
2026-04-22 00:27 43.39844 -80.05744 3269 ft 62 kts 234°
2026-04-22 00:27 43.39593 -80.06249 3281 ft 67 kts 234°
2026-04-22 00:27 43.39315 -80.06791 3284 ft 73 kts 234°
2026-04-22 00:28 43.39010 -80.07374 3301 ft 77 kts 233°
2026-04-22 00:28 43.38682 -80.07979 3320 ft 81 kts 233°
2026-04-22 00:28 43.38357 -80.08585 3292 ft 74 kts 233°
2026-04-22 00:28 43.38067 -80.09123 3282 ft 66 kts 232°
2026-04-22 00:29 43.37813 -80.09585 3447 ft 49 kts 231°
2026-04-22 00:29 43.37621 -80.09905 3694 ft 52 kts 231°
2026-04-22 00:29 43.37339 -80.10360 3780 ft 75 kts 232°
2026-04-22 00:29 43.36973 -80.10948 3902 ft 85 kts 232°
2026-04-22 00:30 43.36575 -80.11586 4037 ft 90 kts 232°
2026-04-22 00:30 43.36160 -80.12248 4158 ft 94 kts 233°
2026-04-22 00:30 43.35734 -80.12937 4273 ft 95 kts 234°
2026-04-22 00:30 43.35347 -80.13664 4385 ft 96 kts 239°
2026-04-22 00:31 43.34996 -80.14433 4429 ft 93 kts 241°
2026-04-22 00:31 43.34665 -80.15180 4461 ft 91 kts 242°
2026-04-22 00:31 43.34340 -80.15931 4467 ft 92 kts 242°
2026-04-22 00:31 43.34027 -80.16663 4469 ft 83 kts 242°
2026-04-22 00:32 43.33750 -80.17304 4479 ft 75 kts 242°
2026-04-22 00:32 43.33500 -80.17885 4459 ft 68 kts 242°
2026-04-22 00:32 43.33272 -80.18432 4460 ft 64 kts 242°
2026-04-22 00:32 43.33060 -80.18945 4465 ft 60 kts 242°
2026-04-22 00:33 43.32841 -80.19479 4489 ft 70 kts 243°
2026-04-22 00:33 43.32600 -80.20103 4486 ft 77 kts 244°
2026-04-22 00:33 43.32353 -80.20783 4489 ft 82 kts 245°
2026-04-22 00:33 43.32095 -80.21501 4486 ft 86 kts 245°
2026-04-22 00:34 43.31824 -80.22247 4481 ft 89 kts 245°
2026-04-22 00:34 43.31551 -80.23002 4478 ft 90 kts 245°
2026-04-22 00:34 43.31274 -80.23771 4475 ft 88 kts 245°
2026-04-22 00:34 43.31008 -80.24508 4484 ft 84 kts 245°
2026-04-22 00:35 43.30755 -80.25202 4463 ft 79 kts 245°
2026-04-22 00:35 43.30516 -80.25860 4474 ft 75 kts 245°
2026-04-22 00:35 43.30289 -80.26497 4480 ft 74 kts 245°
2026-04-22 00:35 43.30069 -80.27130 4474 ft 73 kts 245°
2026-04-22 00:36 43.29850 -80.27748 4480 ft 72 kts 245°
2026-04-22 00:36 43.29634 -80.28368 4473 ft 72 kts 245°
2026-04-22 00:36 43.29425 -80.28972 4468 ft 70 kts 245°
2026-04-22 00:36 43.29214 -80.29576 4480 ft 71 kts 245°
2026-04-22 00:37 43.29000 -80.30185 4478 ft 71 kts 245°
2026-04-22 00:37 43.28778 -80.30801 4485 ft 73 kts 245°
2026-04-22 00:37 43.28552 -80.31429 4486 ft 74 kts 246°
2026-04-22 00:37 43.28322 -80.32065 4479 ft 75 kts 245°
2026-04-22 00:38 43.28087 -80.32703 4477 ft 75 kts 245°
2026-04-22 00:38 43.27849 -80.33347 4477 ft 76 kts 245°
2026-04-22 00:38 43.27621 -80.33989 4482 ft 76 kts 245°
2026-04-22 00:38 43.27395 -80.34645 4468 ft 76 kts 245°
2026-04-22 00:39 43.27168 -80.35294 4471 ft 75 kts 246°
2026-04-22 00:39 43.26939 -80.35940 4472 ft 75 kts 245°
2026-04-22 00:39 43.26715 -80.36584 4469 ft 75 kts 245°
2026-04-22 00:39 43.26490 -80.37221 4468 ft 73 kts 246°
2026-04-22 00:40 43.26262 -80.37843 4471 ft 73 kts 246°
2026-04-22 00:40 43.26031 -80.38462 4479 ft 73 kts 245°
2026-04-22 00:40 43.25799 -80.39096 4492 ft 75 kts 245°
2026-04-22 00:40 43.25568 -80.39746 4480 ft 76 kts 245°
2026-04-22 00:41 43.25337 -80.40390 4495 ft 77 kts 246°
2026-04-22 00:41 43.25098 -80.41052 4477 ft 78 kts 245°
2026-04-22 00:41 43.24860 -80.41712 4470 ft 77 kts 245°
2026-04-22 00:41 43.24625 -80.42367 4468 ft 76 kts 245°
2026-04-22 00:42 43.24390 -80.43018 4470 ft 76 kts 245°
2026-04-22 00:42 43.24156 -80.43659 4481 ft 76 kts 245°
2026-04-22 00:42 43.23917 -80.44314 4478 ft 77 kts 245°
2026-04-22 00:42 43.23676 -80.44974 4484 ft 78 kts 245°
2026-04-22 00:43 43.23432 -80.45642 4476 ft 78 kts 245°
2026-04-22 00:43 43.23193 -80.46305 4487 ft 79 kts 246°
2026-04-22 00:43 43.22942 -80.46978 4479 ft 79 kts 246°
2026-04-22 00:43 43.22687 -80.47651 4478 ft 80 kts 245°
2026-04-22 00:44 43.22433 -80.48331 4489 ft 81 kts 245°
2026-04-22 00:44 43.22177 -80.49027 4490 ft 83 kts 245°
2026-04-22 00:44 43.21916 -80.49729 4479 ft 82 kts 246°
2026-04-22 00:44 43.21659 -80.50424 4473 ft 81 kts 246°
2026-04-22 00:45 43.21408 -80.51107 4478 ft 80 kts 245°
2026-04-22 00:45 43.21158 -80.51786 4477 ft 80 kts 246°
2026-04-22 00:45 43.20908 -80.52450 4480 ft 80 kts 246°
2026-04-22 00:45 43.20677 -80.53134 4469 ft 78 kts 248°
2026-04-22 00:46 43.20468 -80.53821 4470 ft 78 kts 249°
2026-04-22 00:46 43.20267 -80.54505 4478 ft 77 kts 249°
2026-04-22 00:46 43.20068 -80.55194 4473 ft 78 kts 249°
2026-04-22 00:46 43.19869 -80.55883 4467 ft 78 kts 250°
2026-04-22 00:47 43.19673 -80.56564 4470 ft 76 kts 249°
2026-04-22 00:47 43.19484 -80.57235 4477 ft 76 kts 250°
2026-04-22 00:47 43.19292 -80.57916 4479 ft 77 kts 250°
2026-04-22 00:47 43.19097 -80.58600 4476 ft 77 kts 249°
2026-04-22 00:48 43.18902 -80.59280 4471 ft 76 kts 250°
2026-04-22 00:48 43.18712 -80.59947 4470 ft 74 kts 250°
2026-04-22 00:48 43.18525 -80.60614 4486 ft 75 kts 250°
2026-04-22 00:48 43.18336 -80.61285 4477 ft 75 kts 250°
2026-04-22 00:49 43.18147 -80.61951 4471 ft 75 kts 250°
2026-04-22 00:49 43.17955 -80.62614 4487 ft 76 kts 250°
2026-04-22 00:49 43.17759 -80.63290 4488 ft 78 kts 250°
2026-04-22 00:49 43.17556 -80.63988 4475 ft 79 kts 250°
2026-04-22 00:50 43.17354 -80.64684 4475 ft 78 kts 249°
2026-04-22 00:50 43.17155 -80.65371 4467 ft 77 kts 250°
2026-04-22 00:50 43.16963 -80.66046 4471 ft 75 kts 250°
2026-04-22 00:50 43.16780 -80.66710 4469 ft 74 kts 249°
2026-04-22 00:51 43.16760 -80.66785 4473 ft 74 kts 250°
2026-04-22 00:51 43.16671 -80.67110 4472 ft 74 kts 249°
2026-04-22 00:51 43.16554 -80.67539 4474 ft 74 kts 250°
2026-04-22 00:51 43.16444 -80.67948 4477 ft 74 kts 250°
2026-04-22 00:52 43.16268 -80.68604 4473 ft 73 kts 250°
2026-04-22 00:52 43.16095 -80.69258 4469 ft 72 kts 250°
2026-04-22 00:52 43.15920 -80.69900 4484 ft 72 kts 250°
2026-04-22 00:52 43.15733 -80.70547 4486 ft 74 kts 250°
2026-04-22 00:53 43.15540 -80.71215 4477 ft 76 kts 250°
2026-04-22 00:53 43.15352 -80.71877 4464 ft 74 kts 249°
2026-04-22 00:53 43.15166 -80.72531 4474 ft 74 kts 250°
2026-04-22 00:53 43.14981 -80.73190 4484 ft 75 kts 250°
2026-04-22 00:54 43.14794 -80.73859 4487 ft 76 kts 249°
2026-04-22 00:54 43.14606 -80.74538 4477 ft 77 kts 250°
2026-04-22 00:54 43.14425 -80.75215 4463 ft 74 kts 249°
2026-04-22 00:54 43.14242 -80.75866 4462 ft 73 kts 248°
2026-04-22 00:55 43.14055 -80.76500 4457 ft 71 kts 248°
2026-04-22 00:55 43.13860 -80.77137 4391 ft 75 kts 248°
2026-04-22 00:55 43.13499 -80.78277 4188 ft 57 kts 247°
2026-04-22 00:56 43.13356 -80.78765 4120 ft 53 kts 247°
2026-04-22 00:56 43.13226 -80.79229 4049 ft 51 kts 247°
2026-04-22 00:56 43.13103 -80.79685 3994 ft 51 kts 248°
2026-04-22 00:56 43.12978 -80.80135 3935 ft 51 kts 249°
2026-04-22 00:57 43.12848 -80.80595 3883 ft 53 kts 246°
2026-04-22 00:57 43.12717 -80.81066 3829 ft 54 kts 249°
2026-04-22 00:57 43.12597 -80.81545 3749 ft 54 kts 249°
2026-04-22 00:57 43.12470 -80.82033 3680 ft 55 kts 246°
2026-04-22 00:58 43.12355 -80.82521 3592 ft 54 kts 248°
2026-04-22 00:58 43.12241 -80.82998 3528 ft 51 kts 249°
2026-04-22 00:58 43.12131 -80.83457 3517 ft 50 kts 245°
2026-04-22 00:58 43.12029 -80.83910 3478 ft 48 kts 251°
2026-04-22 00:59 43.11940 -80.84311 3444 ft 40 kts 247°
2026-04-22 00:59 43.11873 -80.84676 3443 ft 42 kts 245°
2026-04-22 00:59 43.11786 -80.85090 3453 ft 49 kts 246°
2026-04-22 00:59 43.11673 -80.85561 3477 ft 56 kts 245°
2026-04-22 01:00 43.11540 -80.86112 3493 ft 66 kts 249°
2026-04-22 01:00 43.11387 -80.86713 3483 ft 73 kts 248°
2026-04-22 01:00 43.11211 -80.87383 3471 ft 76 kts 248°
2026-04-22 01:00 43.11031 -80.88065 3461 ft 76 kts 248°
2026-04-22 01:01 43.10849 -80.88751 3468 ft 77 kts 248°
2026-04-22 01:01 43.10661 -80.89456 3482 ft 80 kts 248°
2026-04-22 01:01 43.10466 -80.90181 3484 ft 82 kts 248°
2026-04-22 01:01 43.10269 -80.90916 3476 ft 84 kts 248°
2026-04-22 01:02 43.10066 -80.91658 3463 ft 83 kts 248°
2026-04-22 01:02 43.09868 -80.92395 3452 ft 82 kts 248°
2026-04-22 01:02 43.09672 -80.93122 3463 ft 82 kts 248°
2026-04-22 01:02 43.09475 -80.93850 3466 ft 82 kts 248°
2026-04-22 01:03 43.09274 -80.94580 3466 ft 82 kts 248°
2026-04-22 01:03 43.09074 -80.95307 3467 ft 82 kts 248°
2026-04-22 01:03 43.08897 -80.95976 3460 ft 81 kts 248°
2026-04-22 01:03 43.08705 -80.96703 3471 ft 81 kts 248°
2026-04-22 01:04 43.08461 -80.97385 3456 ft 82 kts 227°
2026-04-22 01:04 43.07846 -80.97252 3451 ft 117 kts 153°
2026-04-22 01:04 43.07572 -80.96121 3460 ft 141 kts 94°
2026-04-22 01:04 43.07645 -80.95395 3463 ft 140 kts 89°
2026-04-22 01:05 43.07806 -80.94256 3465 ft 140 kts 83°
2026-04-22 01:05 43.08030 -80.92958 3471 ft 140 kts 81°